Regional Weather Roundup
Issued by NWS

Home | Current Version | Previous Version | Graphics & Text | Print | Product List | Glossary On
Versions: 1 2 3 4 5 6 7 8 9 10 11 12 13 14 15 16 17 18 19 20 21 22 23 24 25 26 27 28 29 30 31 32 33 34 35 36 37 38 39 40 41 42 43 44 45 46 47 48 49 50
418
ASUS45 KBOU 061807
RWRCO

WEATHER ROUNDUP FOR COLORADO
NATIONAL WEATHER SERVICE DENVER/BOULDER CO
1200 PM MDT FRI MAY 06 2016

NOTE: "FAIR" INDICATES FEW OR NO CLOUDS BELOW 12000 FEET WITH NO
SIGNIFICANT WEATHER AND/OR OBSTRUCTIONS TO VISIBILITY.

COZ001>005-013-030-031-061900-
...NORTHWEST COLORADO...

CITY           SKY/WX    TMP DP  RH WIND       PRES   REMARKS
CRAIG          FAIR      66  39  37 NE10      30.01F
HAYDEN         FAIR      61  36  39 NE8       30.03F
MEEKER         FAIR      72  37  28 VRB5      29.97F
MOUNT WERNER   NOT AVBL
STEAMBOAT SPGS FAIR      61  33  35 CALM      30.05F
WALDEN         CLOUDY    59  27  29 SE9G22    30.15R
$$

COZ006>008-011-061900-
...WEST CENTRAL VALLEYS...

CITY           SKY/WX    TMP DP  RH WIND       PRES   REMARKS
GRAND JUNCTION PTSUNNY   77  38  24 E15       29.83F
MONTROSE       FAIR      75  36  24 E18G24    29.90F
EAGLE          NOT AVBL
RIFLE          FAIR      73  37  27 E10G20    29.90F
DELTA          NOT AVBL
NUCLA          NOT AVBL
$$

COZ017>023-064>068-061900-
...SOUTHWEST COLORADO...

CITY           SKY/WX    TMP DP  RH WIND       PRES   REMARKS
DURANGO        FAIR      71  26  18 S16G30    29.97F
CORTEZ         FAIR      73  31  21 S16G35    29.93F
PAGOSA SPRINGS PTSUNNY   69  25  19 S17G26    30.06F
TELLURIDE      PTSUNNY   58  24  26 S17G24    30.10F
WOLF CREEK PAS PTSUNNY   45  23  42 S9G35     30.33F
$$

COZ009-010-012-014-032>034-037-058>063-061900-
...CENTRAL COLORADO...

CITY           SKY/WX    TMP DP  RH WIND       PRES   REMARKS
ASPEN          FAIR      65  32  29 S14G28    30.06F
BUENA VISTA    PTSUNNY   62  29  29 SW3       30.14F
COPPER MTN     NOT AVBL
BERTHOUD PASS  CLOUDY    34  27  75 E9        30.40F WCI  26
COTTONWOOD PAS PTSUNNY   61  30  31 E6        30.24F
GUNNISON       PTSUNNY   64  34  32 E21G28    30.07F
KREMMLING      FAIR      66  28  24 E5        30.10F
LEADVILLE      CLOUDY    53  29  39 S8        30.22F
MONARCH PASS   FAIR      43  30  61 MISG      30.43F
SALIDA         FAIR      65  31  27 NE3       30.19F
SUNLIGHT       FAIR      52  32  46 E6        30.24F
WILKERSON PASS FAIR      52  28  40 S9        30.36F
$$

COZ069>075-061900-
...SAN LUIS VALLEY/SANGRE DE CRISTO MOUNTAINS...

CITY           SKY/WX    TMP DP  RH WIND       PRES   REMARKS
ALAMOSA        FAIR      71  33  24 S15G26    30.07F
LA VETA PASS   CLOUDY    55  32  41 E5        30.27F
SAGUACHE       FAIR      64  32  29 S22G29    30.11F
$$

COZ035-036-038>040-061900-
...NORTHERN COLORADO FRONT RANGE...

CITY           SKY/WX    TMP DP  RH WIND       PRES   REMARKS
DENVER INTL AP PTSUNNY   75  34  22 CALM      29.97F
DMNS CITY PARK   N/A     76  29  18 SW10G18   29.96S
AURORA         PTSUNNY   74  38  26 SW8       29.99F
FRONT RANGE AP PTSUNNY   75  36  23 E12       29.98F
ERIE MUNI ARPT FAIR      73  44  35 W6        29.96S
BOULDER MUN AP FAIR      70  43  37 CALM      29.97S
CENTENNIAL     PTSUNNY   72  32  23 SW15      29.99F
BROOMFIELD     MOSUNNY   73  41  31 CALM      30.00S
FORT COLLINS   FAIR      73  50  43 E5        29.96F
LONGMONT       FAIR      77  42  29 SW8       29.97F
$$

COZ041-046-047-076>085-087-088-061900-
...PIKES PEAK/PALMER DIVIDE AND SOUTHERN FOOTHILLS...

CITY           SKY/WX    TMP DP  RH WIND       PRES   REMARKS
COLO. SPRINGS  FAIR      75  31  19 S12       30.04F
A. F. ACADEMY  MOSUNNY   75  30  19 SE10      30.04F
SCHRIEVER AFB  NOT AVBL
ELLICOTT       FAIR     N/A N/A N/A S14G20    30.04F
FALCON         NOT AVBL
FORT CARSON    FAIR      77  39  25 SE15G24   30.01S
LIMON          FAIR      75  43  31 SE16      30.00F
MONUMENT HILL  FAIR      68  32  26 CALM      30.10F
TRINIDAD       FAIR      76  35  22 S22G30    30.04F
$$

COZ042>045-048>051-090-091-061900-
...NORTHEAST COLORADO...

CITY           SKY/WX    TMP DP  RH WIND       PRES   REMARKS
GREELEY ARPT   FAIR      73  50  43 SE7       29.96F
AKRON          FAIR      74  48  39 SE7       29.96F
BURLINGTON     FAIR      81  34  18 SW24G31   29.98F
WRAY           NOT AVBL
STERLING       FAIR      77  48  36 S3        29.92F
HOLYOKE        NOT AVBL
FORT MORGAN    FAIR      74  44  34 S3        29.96S
$$

COZ086-089-092>099-061900-
...SOUTHEAST COLORADO...

CITY           SKY/WX    TMP DP  RH WIND       PRES   REMARKS
PUEBLO         FAIR      77  41  27 S5        29.96F
LA JUNTA       FAIR      82  33  17 S14       29.95F
LAMAR          FAIR      87  31  13 SW20G29   29.94F
SPRINGFIELD      N/A     79  33  19 S18G37    30.01F
$$




USA.gov is the U.S. government's official web portal to all federal, state and local government web resources and services.